Home   Weather   Victoria   Past weeks
Flag for Seychelles

Past Weather in Victoria, Seychelles — Yesterday and Last 2 Weeks

Now
82 °F

Passing clouds.


Feels Like: 89 °F
Forecast: 83 / 80 °F
Wind: 6 mph from Southeast

Location: National Airport

Current Time: Jun 2, 2020 at 3:58:16 am

Latest Report: Jun 2, 2020 at 3:00 am


Visibility: N/A

Pressure: 29.83 "Hg

Humidity: 79%

Dew Point: 75 °F

Location of VictoriaLocation

Past Weather in Victoria — Graph

°F

Victoria Temperature Yesterday

Maximum temperature yesterday: 88 °F (at 11:00 am)
Minimum temperature yesterday: 79 °F (at 3:00 am)
Average temperature yesterday: 83 °F

High & Low Weather Summary for the Past Weeks

 TemperatureHumidityPressure
High90 °F (May 19, 12:00 pm)94% (May 22, 8:07 pm)29.92 "Hg (May 22, 8:07 pm)
Low79 °F (May 25, 1:00 am)59% (May 27, 2:00 pm)29.80 "Hg (May 18, 3:00 pm)
Average84 °F78%29.86 "Hg
* Reported May 18 2:00 am — Jun 2 2:00 am, Victoria. Weather by CustomWeather, © 2020

Note: Actual official high and low records may vary slightly from our data, if they occured in-between our weather recording intervals... More about our weather records

Victoria Weather History for the Previous 24 Hours

Scroll right to see more
 ConditionsComfort  
Time TempWeatherWind HumidityBarometerVisibility
2:00 am
Tue, Jun 2
82 °FPassing clouds.10 mph79%29.86 "HgN/A
1:00 am82 °FPassing clouds.6 mph79%29.89 "HgN/A
11:00 pm
Mon, Jun 1
82 °FPassing clouds.7 mph79%29.89 "HgN/A
10:00 pm79 °FSprinkles. Passing clouds.9 mph89%29.92 "Hg2 mi
9:00 pm79 °FSprinkles. Passing clouds.13 mph89%29.92 "HgN/A
8:00 pm82 °FPassing clouds.9 mph79%29.89 "HgN/A
7:00 pm82 °FPassing clouds.15 mph84%29.86 "HgN/A
6:00 pm84 °FPartly sunny.12 mph79%29.83 "HgN/A
5:00 pm86 °FScattered clouds.14 mph75%29.83 "HgN/A
4:00 pm86 °FPartly sunny.12 mph75%29.83 "HgN/A
3:00 pm84 °FPartly sunny.13 mph79%29.83 "HgN/A
2:00 pm86 °FPartly sunny.14 mph75%29.86 "HgN/A
1:00 pm88 °FScattered clouds.16 mph75%29.86 "HgN/A
12:00 pm86 °FScattered clouds.15 mph75%29.89 "HgN/A
11:00 am88 °FScattered clouds.15 mph75%29.92 "HgN/A
10:00 am84 °FScattered clouds.16 mph74%29.92 "HgN/A
9:00 am84 °FPassing clouds.13 mph79%29.92 "HgN/A
8:00 am82 °FPartly sunny.9 mph79%29.92 "HgN/A
7:00 am81 °FPassing clouds.10 mph84%29.89 "HgN/A
6:00 am81 °FPassing clouds.10 mph84%29.86 "HgN/A
5:00 am79 °FPassing clouds.13 mph89%29.86 "HgN/A
4:00 am79 °FPassing clouds.14 mph89%29.86 "HgN/A
3:00 am79 °FPassing clouds.12 mph89%29.86 "HgN/A
Weather by CustomWeather, © 2020

See weather overview

Advertising